Visit our webpage : www.zegrzepomorskie.pl

NOTAM's

B3654/14 - GRASS RWY 07L/25R CLSD WIP. 26 JUL 00:00 2014 UNTIL 25 OCT 23:59 2014. CREATED: 25 JUL 14:33 2014
General Information Charts AIP

Airport Name: Zegrze Pomorskie
ICAO Code: EPKZ (old code EPKO)
City: Koszalin PL
Elevation: 236 ft (72m);

ARP: (240ft)
N 54.042778 E 16.263611 (dd.dddddd) WGS84
N 54 02'34" E 16 15'49" (dd mm ss)
N 54 02.567 E 16 15.817 (dd mm.mmm)

25 THR (233ft)
N 54.046083 E 16.28185 (dd.dddddd) WGS84
N 54 02'45" E 16 16'54" (dd mm ss)
N 54 02.765 E 16 16.911 (dd mm.mmm)

Runway: (GEO) 070/250; 2500x60m; Asphalt

Radio:
FIS: Gdansk Information: 127.150MHz
Zegrze Pomorskie Radio: 122.300MHz

E-mail: przemek@tu.org.pl
Phone (PL): +48503770933
Phone (PL/ENG): +48502592990

Web: www.ZegrzePomorskie.pl

There is no AVGAS. You can refuel in EPSC or EPBY.

Minimal atmospheric conditions
(cloud base / visibility)
day - aeroplanes 200 m / 2000 m
day - gliders 300 m / 2000 m
day - helicopters 200 m / 2000 m
day - baloons 300 m / 2000 m
day - powered hang-gliders 200 m / 2000 m
night - aeroplanes 500 m / 5000 m
night - gliders 500 m / 5000 m
night - helicopters 300 m / 5000 m
night - baloons 500 m / 5000 m
night - powered hang-gliders 500m / 5000m

Wind indicator - 300 m north from 25 THR.

Czapla Gora mountain and observation tower 156 m AMSL within 2800 m from ARP, 1 km south from rwy axis on 07 THR side.

Warnings:
Aviation Ambulance on site from MAY to SEP.
Damaged surface (20m) before 07 treshold signs only.

  • Plan zagospodarowania przestrzeni lotniska (PL)
  • Airspace map
  • Current AUP chart (from PATA)
  • eAIP VFR



     
  • VFR AD 4 EPKZ
  • VFR AD 4 EPKZ 3-0 Aerodrome Chart
  • VFR AD 4 EPKZ 4-0 Visual Operation Chart
  • VFR AD 4 EPKZ 5-0 Visual Operation Chart
  • VFR AD 4 EPKZ 6-0 Extract from Aeronautical Chart of Poland - ICAO 1: 500 000

  • Weather
    Metar z pełnej godziny Komunikat METAR ze strony awiacja.imgw.pl Metar G00 EPSC METAR EPSC 250400Z 14008KT 5000 BR SCT005 02/01 Q1022 =
    Metar z połowy godziny Komunikat METAR ze strony awiacja.imgw.pl Metar G30 EPSN METAR EPSN 250400Z 14008KT 7000 NSC 00/M01 Q1022 RMK 001 092 0/0=
    Metar z połowy godziny Komunikat METAR ze strony awiacja.imgw.pl Metar G30 EPNA
    Metar z połowy godziny Komunikat METAR ze strony awiacja.imgw.pl Metar G30 EPDA METAR EPDA 250400Z 15011KT 110V190 9999 BKN193 02/M01 Q1022 RMK 015 083 5/5=
    Metar z pełnej godziny Komunikat METAR ze strony awiacja.imgw.pl Metar G00 EPGD METAR EPGD 250400Z 18006KT 130V220 CAVOK M01/M05 Q1025 =
    Metar z pełnej godziny Komunikat METAR ze strony awiacja.imgw.pl Metar G00 EPBY METAR EPBY 250400Z 10003KT CAVOK M02/M05 Q1025 =

    METAR message map of Poland (ibcool)
    METAR message map of Europe (ibcool)
    SYNOP observations general cloud cover for Europe

    IMGW - TAF's, METAR's, thunderstorms/icing/wind map's

    IMGW Radar
    http://radareu.cz
    http://www.blitzortung.org/

    TAF from EPDA RAW(about 27nm NE from Zegrze Pomorskie)

    TAF from EPDA Translated


    Significant

    Satelite:

    Camera view from Chelmska Mountain (Koszalin)

    Camera provided by koszalin.pl


    Photo gallery



    statystyka


    przemek@tu.org.pl

    Facebook
    Kopiowanie calosci jak i poszczegolnych czesci tej strony jest lamaniem praw autorskich. Autor nie wyraza zgody na kopiowanie elementow strony i wykorzystywanie ich w celach komercyjnych jak i prywatnych bez uzgodnienia.